<?xml version="1.0"?>
<gpx xmlns="http://www.topografix.com/GPX/1/1" xmlns:xsi="http://www.w3.org/2001/XMLSchema-instance" version="1.1" creator="GPX RubyGem 1.0.0 -- http://dougfales.github.io/gpx/" xsi:schemaLocation="http://www.topografix.com/GPX/1/1 http://www.topografix.com/GPX/1/1/gpx.xsd">
  <metadata>
    <name/>
    <time>2026-05-07T13:17:40+00:00</time>
    <bound minlat="90.0" minlon="180.0" maxlat="-90.0" maxlon="-180.0"/>
  </metadata>
  <trk>
    <name/>
    <trkseg>
      <trkpt lat="45.674346" lon="11.351612">
        <time>1970-01-01T00:00:00+00:00</time>
        <ele>332.0</ele>
      </trkpt>
      <trkpt lat="45.674312" lon="11.351626">
        <time>1970-01-01T00:00:00+00:00</time>
        <ele>333.0</ele>
      </trkpt>
      <trkpt lat="45.674275" lon="11.351641">
        <time>1970-01-01T00:00:00+00:00</time>
        <ele>334.0</ele>
      </trkpt>
      <trkpt lat="45.674261" lon="11.351662">
        <time>1970-01-01T00:00:00+00:00</time>
        <ele>335.0</ele>
      </trkpt>
      <trkpt lat="45.674256" lon="11.351774">
        <time>1970-01-01T00:00:00+00:00</time>
        <ele>334.0</ele>
      </trkpt>
      <trkpt lat="45.674226" lon="11.351884">
        <time>1970-01-01T00:00:00+00:00</time>
        <ele>334.0</ele>
      </trkpt>
      <trkpt lat="45.674179" lon="11.351976">
        <time>1970-01-01T00:00:00+00:00</time>
        <ele>335.0</ele>
      </trkpt>
      <trkpt lat="45.674096" lon="11.352053">
        <time>1970-01-01T00:00:00+00:00</time>
        <ele>337.0</ele>
      </trkpt>
      <trkpt lat="45.673988" lon="11.352099">
        <time>1970-01-01T00:00:00+00:00</time>
        <ele>339.0</ele>
      </trkpt>
      <trkpt lat="45.673947" lon="11.352104">
        <time>1970-01-01T00:00:00+00:00</time>
        <ele>340.0</ele>
      </trkpt>
      <trkpt lat="45.673925" lon="11.352064">
        <time>1970-01-01T00:00:00+00:00</time>
        <ele>341.0</ele>
      </trkpt>
      <trkpt lat="45.673954" lon="11.351951">
        <time>1970-01-01T00:00:00+00:00</time>
        <ele>342.0</ele>
      </trkpt>
      <trkpt lat="45.673957" lon="11.351858">
        <time>1970-01-01T00:00:00+00:00</time>
        <ele>342.0</ele>
      </trkpt>
      <trkpt lat="45.673939" lon="11.351763">
        <time>1970-01-01T00:00:00+00:00</time>
        <ele>343.0</ele>
      </trkpt>
      <trkpt lat="45.673917" lon="11.351676">
        <time>1970-01-01T00:00:00+00:00</time>
        <ele>344.0</ele>
      </trkpt>
      <trkpt lat="45.673906" lon="11.351597">
        <time>1970-01-01T00:00:00+00:00</time>
        <ele>345.0</ele>
      </trkpt>
      <trkpt lat="45.673887" lon="11.351621">
        <time>1970-01-01T00:00:00+00:00</time>
        <ele>345.0</ele>
      </trkpt>
      <trkpt lat="45.67383" lon="11.351585">
        <time>1970-01-01T00:00:00+00:00</time>
        <ele>347.0</ele>
      </trkpt>
      <trkpt lat="45.673753" lon="11.351452">
        <time>1970-01-01T00:00:00+00:00</time>
        <ele>350.0</ele>
      </trkpt>
      <trkpt lat="45.673723" lon="11.351397">
        <time>1970-01-01T00:00:00+00:00</time>
        <ele>352.0</ele>
      </trkpt>
      <trkpt lat="45.673283" lon="11.35188">
        <time>1970-01-01T00:00:00+00:00</time>
        <ele>353.0</ele>
      </trkpt>
      <trkpt lat="45.673183" lon="11.351941">
        <time>1970-01-01T00:00:00+00:00</time>
        <ele>354.0</ele>
      </trkpt>
      <trkpt lat="45.673092" lon="11.35203">
        <time>1970-01-01T00:00:00+00:00</time>
        <ele>355.0</ele>
      </trkpt>
      <trkpt lat="45.672868" lon="11.352094">
        <time>1970-01-01T00:00:00+00:00</time>
        <ele>359.0</ele>
      </trkpt>
      <trkpt lat="45.672814" lon="11.352307">
        <time>1970-01-01T00:00:00+00:00</time>
        <ele>358.0</ele>
      </trkpt>
      <trkpt lat="45.67273" lon="11.352509">
        <time>1970-01-01T00:00:00+00:00</time>
        <ele>359.0</ele>
      </trkpt>
      <trkpt lat="45.672632" lon="11.352673">
        <time>1970-01-01T00:00:00+00:00</time>
        <ele>361.0</ele>
      </trkpt>
      <trkpt lat="45.67242" lon="11.352753">
        <time>1970-01-01T00:00:00+00:00</time>
        <ele>363.0</ele>
      </trkpt>
      <trkpt lat="45.672303" lon="11.352867">
        <time>1970-01-01T00:00:00+00:00</time>
        <ele>365.0</ele>
      </trkpt>
      <trkpt lat="45.672204" lon="11.353047">
        <time>1970-01-01T00:00:00+00:00</time>
        <ele>368.0</ele>
      </trkpt>
      <trkpt lat="45.672165" lon="11.353234">
        <time>1970-01-01T00:00:00+00:00</time>
        <ele>368.0</ele>
      </trkpt>
      <trkpt lat="45.672177" lon="11.353368">
        <time>1970-01-01T00:00:00+00:00</time>
        <ele>367.0</ele>
      </trkpt>
      <trkpt lat="45.672285" lon="11.353744">
        <time>1970-01-01T00:00:00+00:00</time>
        <ele>365.0</ele>
      </trkpt>
      <trkpt lat="45.672243" lon="11.353944">
        <time>1970-01-01T00:00:00+00:00</time>
        <ele>366.0</ele>
      </trkpt>
      <trkpt lat="45.672141" lon="11.354153">
        <time>1970-01-01T00:00:00+00:00</time>
        <ele>370.0</ele>
      </trkpt>
      <trkpt lat="45.672116" lon="11.354416">
        <time>1970-01-01T00:00:00+00:00</time>
        <ele>372.0</ele>
      </trkpt>
      <trkpt lat="45.672008" lon="11.354765">
        <time>1970-01-01T00:00:00+00:00</time>
        <ele>375.0</ele>
      </trkpt>
      <trkpt lat="45.67194" lon="11.354842">
        <time>1970-01-01T00:00:00+00:00</time>
        <ele>376.0</ele>
      </trkpt>
      <trkpt lat="45.67164" lon="11.354942">
        <time>1970-01-01T00:00:00+00:00</time>
        <ele>377.0</ele>
      </trkpt>
      <trkpt lat="45.671505" lon="11.355115">
        <time>1970-01-01T00:00:00+00:00</time>
        <ele>376.0</ele>
      </trkpt>
      <trkpt lat="45.671385" lon="11.354961">
        <time>1970-01-01T00:00:00+00:00</time>
        <ele>379.0</ele>
      </trkpt>
      <trkpt lat="45.671285" lon="11.354747">
        <time>1970-01-01T00:00:00+00:00</time>
        <ele>382.0</ele>
      </trkpt>
      <trkpt lat="45.671209" lon="11.354676">
        <time>1970-01-01T00:00:00+00:00</time>
        <ele>383.0</ele>
      </trkpt>
      <trkpt lat="45.670781" lon="11.354812">
        <time>1970-01-01T00:00:00+00:00</time>
        <ele>390.0</ele>
      </trkpt>
      <trkpt lat="45.670681" lon="11.35495">
        <time>1970-01-01T00:00:00+00:00</time>
        <ele>391.0</ele>
      </trkpt>
      <trkpt lat="45.670572" lon="11.355411">
        <time>1970-01-01T00:00:00+00:00</time>
        <ele>394.0</ele>
      </trkpt>
      <trkpt lat="45.670504" lon="11.355788">
        <time>1970-01-01T00:00:00+00:00</time>
        <ele>396.0</ele>
      </trkpt>
      <trkpt lat="45.670471" lon="11.355806">
        <time>1970-01-01T00:00:00+00:00</time>
        <ele>396.0</ele>
      </trkpt>
      <trkpt lat="45.670628" lon="11.356085">
        <time>1970-01-01T00:00:00+00:00</time>
        <ele>394.0</ele>
      </trkpt>
      <trkpt lat="45.67069" lon="11.35633">
        <time>1970-01-01T00:00:00+00:00</time>
        <ele>391.0</ele>
      </trkpt>
      <trkpt lat="45.670838" lon="11.356731">
        <time>1970-01-01T00:00:00+00:00</time>
        <ele>385.0</ele>
      </trkpt>
      <trkpt lat="45.670844" lon="11.356796">
        <time>1970-01-01T00:00:00+00:00</time>
        <ele>384.0</ele>
      </trkpt>
      <trkpt lat="45.671027" lon="11.357095">
        <time>1970-01-01T00:00:00+00:00</time>
        <ele>382.0</ele>
      </trkpt>
      <trkpt lat="45.671239" lon="11.357766">
        <time>1970-01-01T00:00:00+00:00</time>
        <ele>381.0</ele>
      </trkpt>
      <trkpt lat="45.671267" lon="11.35805">
        <time>1970-01-01T00:00:00+00:00</time>
        <ele>380.0</ele>
      </trkpt>
      <trkpt lat="45.671138" lon="11.358691">
        <time>1970-01-01T00:00:00+00:00</time>
        <ele>375.0</ele>
      </trkpt>
      <trkpt lat="45.671147" lon="11.358963">
        <time>1970-01-01T00:00:00+00:00</time>
        <ele>375.0</ele>
      </trkpt>
      <trkpt lat="45.671184" lon="11.359228">
        <time>1970-01-01T00:00:00+00:00</time>
        <ele>373.0</ele>
      </trkpt>
      <trkpt lat="45.671268" lon="11.359418">
        <time>1970-01-01T00:00:00+00:00</time>
        <ele>372.0</ele>
      </trkpt>
      <trkpt lat="45.671329" lon="11.359652">
        <time>1970-01-01T00:00:00+00:00</time>
        <ele>370.0</ele>
      </trkpt>
      <trkpt lat="45.67143" lon="11.36029">
        <time>1970-01-01T00:00:00+00:00</time>
        <ele>363.0</ele>
      </trkpt>
      <trkpt lat="45.671509" lon="11.360618">
        <time>1970-01-01T00:00:00+00:00</time>
        <ele>360.0</ele>
      </trkpt>
      <trkpt lat="45.6716" lon="11.360894">
        <time>1970-01-01T00:00:00+00:00</time>
        <ele>356.0</ele>
      </trkpt>
      <trkpt lat="45.671694" lon="11.361554">
        <time>1970-01-01T00:00:00+00:00</time>
        <ele>349.0</ele>
      </trkpt>
      <trkpt lat="45.671805" lon="11.361829">
        <time>1970-01-01T00:00:00+00:00</time>
        <ele>347.0</ele>
      </trkpt>
      <trkpt lat="45.672017" lon="11.362133">
        <time>1970-01-01T00:00:00+00:00</time>
        <ele>344.0</ele>
      </trkpt>
      <trkpt lat="45.672112" lon="11.362241">
        <time>1970-01-01T00:00:00+00:00</time>
        <ele>342.0</ele>
      </trkpt>
      <trkpt lat="45.672156" lon="11.36222">
        <time>1970-01-01T00:00:00+00:00</time>
        <ele>343.0</ele>
      </trkpt>
      <trkpt lat="45.672156" lon="11.36222">
        <time>1970-01-01T00:00:00+00:00</time>
        <ele>343.0</ele>
      </trkpt>
      <trkpt lat="45.672112" lon="11.362241">
        <time>1970-01-01T00:00:00+00:00</time>
        <ele>342.0</ele>
      </trkpt>
      <trkpt lat="45.672017" lon="11.362133">
        <time>1970-01-01T00:00:00+00:00</time>
        <ele>344.0</ele>
      </trkpt>
      <trkpt lat="45.671805" lon="11.361829">
        <time>1970-01-01T00:00:00+00:00</time>
        <ele>347.0</ele>
      </trkpt>
      <trkpt lat="45.671694" lon="11.361554">
        <time>1970-01-01T00:00:00+00:00</time>
        <ele>349.0</ele>
      </trkpt>
      <trkpt lat="45.6716" lon="11.360894">
        <time>1970-01-01T00:00:00+00:00</time>
        <ele>356.0</ele>
      </trkpt>
      <trkpt lat="45.671509" lon="11.360618">
        <time>1970-01-01T00:00:00+00:00</time>
        <ele>360.0</ele>
      </trkpt>
      <trkpt lat="45.671792" lon="11.360438">
        <time>1970-01-01T00:00:00+00:00</time>
        <ele>367.0</ele>
      </trkpt>
      <trkpt lat="45.672119" lon="11.360191">
        <time>1970-01-01T00:00:00+00:00</time>
        <ele>364.0</ele>
      </trkpt>
      <trkpt lat="45.672235" lon="11.360124">
        <time>1970-01-01T00:00:00+00:00</time>
        <ele>362.0</ele>
      </trkpt>
      <trkpt lat="45.672434" lon="11.360052">
        <time>1970-01-01T00:00:00+00:00</time>
        <ele>359.0</ele>
      </trkpt>
      <trkpt lat="45.67264" lon="11.360035">
        <time>1970-01-01T00:00:00+00:00</time>
        <ele>355.0</ele>
      </trkpt>
      <trkpt lat="45.672713" lon="11.359995">
        <time>1970-01-01T00:00:00+00:00</time>
        <ele>353.0</ele>
      </trkpt>
      <trkpt lat="45.672894" lon="11.360016">
        <time>1970-01-01T00:00:00+00:00</time>
        <ele>349.0</ele>
      </trkpt>
      <trkpt lat="45.673127" lon="11.359998">
        <time>1970-01-01T00:00:00+00:00</time>
        <ele>347.0</ele>
      </trkpt>
      <trkpt lat="45.673488" lon="11.360146">
        <time>1970-01-01T00:00:00+00:00</time>
        <ele>342.0</ele>
      </trkpt>
      <trkpt lat="45.673634" lon="11.360173">
        <time>1970-01-01T00:00:00+00:00</time>
        <ele>340.0</ele>
      </trkpt>
      <trkpt lat="45.673729" lon="11.360054">
        <time>1970-01-01T00:00:00+00:00</time>
        <ele>340.0</ele>
      </trkpt>
      <trkpt lat="45.673884" lon="11.359775">
        <time>1970-01-01T00:00:00+00:00</time>
        <ele>337.0</ele>
      </trkpt>
      <trkpt lat="45.673987" lon="11.359651">
        <time>1970-01-01T00:00:00+00:00</time>
        <ele>334.0</ele>
      </trkpt>
      <trkpt lat="45.674479" lon="11.35927">
        <time>1970-01-01T00:00:00+00:00</time>
        <ele>315.0</ele>
      </trkpt>
      <trkpt lat="45.674616" lon="11.359201">
        <time>1970-01-01T00:00:00+00:00</time>
        <ele>308.0</ele>
      </trkpt>
      <trkpt lat="45.674712" lon="11.359217">
        <time>1970-01-01T00:00:00+00:00</time>
        <ele>302.0</ele>
      </trkpt>
      <trkpt lat="45.674794" lon="11.359287">
        <time>1970-01-01T00:00:00+00:00</time>
        <ele>298.0</ele>
      </trkpt>
      <trkpt lat="45.67487" lon="11.359399">
        <time>1970-01-01T00:00:00+00:00</time>
        <ele>295.0</ele>
      </trkpt>
      <trkpt lat="45.674987" lon="11.359482">
        <time>1970-01-01T00:00:00+00:00</time>
        <ele>290.0</ele>
      </trkpt>
      <trkpt lat="45.675174" lon="11.359526">
        <time>1970-01-01T00:00:00+00:00</time>
        <ele>282.0</ele>
      </trkpt>
      <trkpt lat="45.675084" lon="11.359316">
        <time>1970-01-01T00:00:00+00:00</time>
        <ele>285.0</ele>
      </trkpt>
      <trkpt lat="45.675033" lon="11.359113">
        <time>1970-01-01T00:00:00+00:00</time>
        <ele>287.0</ele>
      </trkpt>
      <trkpt lat="45.675001" lon="11.358686">
        <time>1970-01-01T00:00:00+00:00</time>
        <ele>287.0</ele>
      </trkpt>
      <trkpt lat="45.675008" lon="11.358449">
        <time>1970-01-01T00:00:00+00:00</time>
        <ele>288.0</ele>
      </trkpt>
      <trkpt lat="45.674972" lon="11.358116">
        <time>1970-01-01T00:00:00+00:00</time>
        <ele>290.0</ele>
      </trkpt>
      <trkpt lat="45.674755" lon="11.357784">
        <time>1970-01-01T00:00:00+00:00</time>
        <ele>297.0</ele>
      </trkpt>
      <trkpt lat="45.67476" lon="11.357678">
        <time>1970-01-01T00:00:00+00:00</time>
        <ele>298.0</ele>
      </trkpt>
      <trkpt lat="45.674806" lon="11.357553">
        <time>1970-01-01T00:00:00+00:00</time>
        <ele>298.0</ele>
      </trkpt>
      <trkpt lat="45.674931" lon="11.35733">
        <time>1970-01-01T00:00:00+00:00</time>
        <ele>294.0</ele>
      </trkpt>
      <trkpt lat="45.674909" lon="11.357109">
        <time>1970-01-01T00:00:00+00:00</time>
        <ele>295.0</ele>
      </trkpt>
      <trkpt lat="45.67478" lon="11.356817">
        <time>1970-01-01T00:00:00+00:00</time>
        <ele>300.0</ele>
      </trkpt>
      <trkpt lat="45.674629" lon="11.356611">
        <time>1970-01-01T00:00:00+00:00</time>
        <ele>305.0</ele>
      </trkpt>
      <trkpt lat="45.674223" lon="11.355874">
        <time>1970-01-01T00:00:00+00:00</time>
        <ele>322.0</ele>
      </trkpt>
      <trkpt lat="45.674218" lon="11.355822">
        <time>1970-01-01T00:00:00+00:00</time>
        <ele>322.0</ele>
      </trkpt>
      <trkpt lat="45.674268" lon="11.355797">
        <time>1970-01-01T00:00:00+00:00</time>
        <ele>320.0</ele>
      </trkpt>
      <trkpt lat="45.674279" lon="11.355732">
        <time>1970-01-01T00:00:00+00:00</time>
        <ele>320.0</ele>
      </trkpt>
      <trkpt lat="45.674326" lon="11.355689">
        <time>1970-01-01T00:00:00+00:00</time>
        <ele>317.0</ele>
      </trkpt>
      <trkpt lat="45.674387" lon="11.355758">
        <time>1970-01-01T00:00:00+00:00</time>
        <ele>314.0</ele>
      </trkpt>
      <trkpt lat="45.67451" lon="11.355676">
        <time>1970-01-01T00:00:00+00:00</time>
        <ele>308.0</ele>
      </trkpt>
      <trkpt lat="45.674576" lon="11.355659">
        <time>1970-01-01T00:00:00+00:00</time>
        <ele>304.0</ele>
      </trkpt>
      <trkpt lat="45.674549" lon="11.355615">
        <time>1970-01-01T00:00:00+00:00</time>
        <ele>305.0</ele>
      </trkpt>
      <trkpt lat="45.674585" lon="11.355565">
        <time>1970-01-01T00:00:00+00:00</time>
        <ele>303.0</ele>
      </trkpt>
      <trkpt lat="45.674681" lon="11.355487">
        <time>1970-01-01T00:00:00+00:00</time>
        <ele>298.0</ele>
      </trkpt>
      <trkpt lat="45.674564" lon="11.355253">
        <time>1970-01-01T00:00:00+00:00</time>
        <ele>305.0</ele>
      </trkpt>
      <trkpt lat="45.674594" lon="11.355141">
        <time>1970-01-01T00:00:00+00:00</time>
        <ele>304.0</ele>
      </trkpt>
      <trkpt lat="45.674756" lon="11.355234">
        <time>1970-01-01T00:00:00+00:00</time>
        <ele>295.0</ele>
      </trkpt>
      <trkpt lat="45.674756" lon="11.355292">
        <time>1970-01-01T00:00:00+00:00</time>
        <ele>295.0</ele>
      </trkpt>
      <trkpt lat="45.674862" lon="11.3552">
        <time>1970-01-01T00:00:00+00:00</time>
        <ele>293.0</ele>
      </trkpt>
      <trkpt lat="45.675016" lon="11.354983">
        <time>1970-01-01T00:00:00+00:00</time>
        <ele>293.0</ele>
      </trkpt>
      <trkpt lat="45.675097" lon="11.354776">
        <time>1970-01-01T00:00:00+00:00</time>
        <ele>294.0</ele>
      </trkpt>
      <trkpt lat="45.675148" lon="11.354593">
        <time>1970-01-01T00:00:00+00:00</time>
        <ele>296.0</ele>
      </trkpt>
      <trkpt lat="45.675127" lon="11.354474">
        <time>1970-01-01T00:00:00+00:00</time>
        <ele>298.0</ele>
      </trkpt>
      <trkpt lat="45.675049" lon="11.354364">
        <time>1970-01-01T00:00:00+00:00</time>
        <ele>300.0</ele>
      </trkpt>
      <trkpt lat="45.675038" lon="11.35427">
        <time>1970-01-01T00:00:00+00:00</time>
        <ele>301.0</ele>
      </trkpt>
      <trkpt lat="45.675046" lon="11.354058">
        <time>1970-01-01T00:00:00+00:00</time>
        <ele>303.0</ele>
      </trkpt>
      <trkpt lat="45.675081" lon="11.353867">
        <time>1970-01-01T00:00:00+00:00</time>
        <ele>305.0</ele>
      </trkpt>
      <trkpt lat="45.675151" lon="11.353512">
        <time>1970-01-01T00:00:00+00:00</time>
        <ele>307.0</ele>
      </trkpt>
      <trkpt lat="45.675157" lon="11.353305">
        <time>1970-01-01T00:00:00+00:00</time>
        <ele>308.0</ele>
      </trkpt>
      <trkpt lat="45.675131" lon="11.353188">
        <time>1970-01-01T00:00:00+00:00</time>
        <ele>310.0</ele>
      </trkpt>
      <trkpt lat="45.675057" lon="11.353037">
        <time>1970-01-01T00:00:00+00:00</time>
        <ele>312.0</ele>
      </trkpt>
      <trkpt lat="45.674744" lon="11.352518">
        <time>1970-01-01T00:00:00+00:00</time>
        <ele>319.0</ele>
      </trkpt>
      <trkpt lat="45.674597" lon="11.352215">
        <time>1970-01-01T00:00:00+00:00</time>
        <ele>323.0</ele>
      </trkpt>
      <trkpt lat="45.674613" lon="11.352112">
        <time>1970-01-01T00:00:00+00:00</time>
        <ele>324.0</ele>
      </trkpt>
      <trkpt lat="45.674353" lon="11.351768">
        <time>1970-01-01T00:00:00+00:00</time>
        <ele>331.0</ele>
      </trkpt>
      <trkpt lat="45.674322" lon="11.351695">
        <time>1970-01-01T00:00:00+00:00</time>
        <ele>332.0</ele>
      </trkpt>
      <trkpt lat="45.674312" lon="11.351626">
        <time>1970-01-01T00:00:00+00:00</time>
        <ele>333.0</ele>
      </trkpt>
      <trkpt lat="45.674346" lon="11.351612">
        <time>1970-01-01T00:00:00+00:00</time>
        <ele>332.0</ele>
      </trkpt>
    </trkseg>
  </trk>
</gpx>
